Wind_Speed
33 33 32 32 25 25 25 27 27 27 21 22 22 19 17 16 16 15 9 8 8 4 8 5 3 2 1 1 1 1 2 1 2 2 2 2 2 2 3 1 2 1 0 1 1 3 3 1 2 4 5 9 8 11
30 31 32 27 27 27 26 27 26 24 23 22 22 18 16 15 16 14 10 10 14 7 6 4 6 7 3 1 2 2 1 1 1 3 1 2 3 2 2 3 2 3 1 2 3 2 1 3 7 7 8 10 14 18
30 29 29 26 26 27 27 27 25 23 22 22 20 17 16 16 15 14 10 10 14 5 5 1 3 7 4 4 4 1 1 2 2 3 4 2 2 2 3 3 2 2 2 2 2 1 4 9 11 13 13 13 20 23
30 31 28 27 26 27 27 26 23 22 22 21 18 17 17 16 14 11 7 8 13 4 3 1 4 6 7 5 3 2 2 4 5 4 3 2 2 2 2 3 1 2 3 1 4 8 13 6 3 13 19 22 24 26
29 29 29 28 27 26 25 24 21 22 21 19 17 18 17 14 12 8 1 3 10 8 3 4 2 3 2 5 6 4 4 4 3 2 1 2 3 3 2 1 2 2 1 2 4 9 10 19 20 22 25 26 27 27
28 29 30 30 25 23 23 23 22 20 20 17 18 17 15 13 7 1 1 2 8 13 4 2 1 2 4 8 7 5 5 3 2 2 2 3 2 0 3 2 1 3 3 5 7 15 18 24 24 21 21 26 28 27
27 28 28 28 24 21 22 22 20 20 19 19 18 13 10 7 4 4 3 5 9 9 3 4 2 2 6 8 7 5 6 3 2 2 2 3 2 2 1 2 3 3 7 12 13 14 15 13 22 26 25 27 27 26
25 26 27 26 23 21 21 20 19 19 19 18 15 8 4 4 4 3 8 9 6 2 2 2 1 1 2 3 3 2 2 3 2 2 3 2 4 1 2 3 2 7 13 11 11 15 18 22 21 23 23 24 28 29
24 25 25 23 21 20 20 21 19 17 18 15 11 4 1 1 2 7 13 5 3 1 2 1 1 2 2 2 2 2 2 1 1 1 2 1 1 1 4 2 5 10 11 15 19 17 15 18 21 23 26 29 27 28
23 25 24 22 19 19 20 20 18 17 15 11 6 2 2 4 8 8 4 3 2 1 2 2 1 1 2 2 2 1 2 1 1 2 3 1 2 3 3 3 8 11 13 13 13 19 21 21 23 25 25 25 27 31
22 22 21 19 18 19 19 20 18 19 14 10 6 2 5 5 2 2 3 4 3 2 2 2 2 2 2 1 1 2 1 1 1 2 2 2 3 4 2 5 8 10 13 9 12 14 13 15 18 22 25 27 27 26
20 19 19 18 17 17 18 19 19 18 16 14 7 5 4 3 2 2 1 2 1 2 3 2 2 1 1 0 1 1 1 1 0 1 2 3 2 3 2 7 10 11 12 12 10 12 14 16 17 19 22 27 28 26
16 18 19 17 17 17 18 18 17 18 18 5 4 3 3 2 4 2 4 2 4 6 4 4 2 1 1 1 3 1 1 1 1 2 1 2 4 2 4 9 11 12 13 12 10 10 12 15 16 20 26 31 31 27
13 18 18 17 16 17 16 17 16 15 7 3 4 5 2 1 2 2 2 3 2 3 3 4 5 1 2 1 1 1 1 1 2 2 2 3 3 3 7 9 12 15 15 13 9 11 9 13 14 19 22 24 30 32
16 19 18 15 15 15 16 16 14 11 4 2 2 2 1 4 5 8 5 3 4 5 4 0 0 1 2 1 1 1 2 2 1 1 1 2 3 7 10 10 13 16 17 14 10 10 8 9 11 16 21 24 23 25
15 17 11 14 15 16 16 15 12 6 1 1 1 2 5 3 5 6 7 3 11 12 4 2 1 0 1 1 2 2 1 2 1 1 1 3 7 10 11 12 16 17 16 13 10 8 9 6 8 12 18 24 24 25
11 10 13 15 16 17 15 9 4 2 1 1 1 3 3 5 5 6 9 5 9 4 1 2 3 3 2 2 2 2 1 2 1 3 4 8 10 13 13 15 17 17 16 11 11 9 10 8 6 9 14 21 26 22
10 11 14 15 16 17 6 4 3 2 2 2 3 1 6 9 10 9 6 7 7 3 1 0 1 2 2 2 1 1 4 5 7 8 9 9 11 13 14 15 16 15 11 10 11 7 9 13 9 8 10 17 20 21
11 13 12 13 15 14 4 3 3 2 2 4 6 6 9 10 12 12 10 7 7 6 2 1 1 2 3 3 3 5 6 9 8 9 10 11 12 12 12 14 16 11 9 10 8 9 15 7 5 4 8 12 15 17
10 12 11 13 13 5 3 2 3 3 3 4 9 7 10 11 11 10 9 8 6 3 3 2 4 4 4 7 9 14 15 14 12 9 12 12 11 11 13 13 10 3 7 3 8 11 2 4 4 5 6 10 14 14
13 11 13 11 6 2 2 3 2 3 6 4 7 11 6 8 5 2 1 2 3 3 1 3 5 6 9 12 14 15 14 11 8 8 12 14 11 12 8 4 9 3 2 6 8 3 5 5 6 5 6 10 10 12
11 12 9 6 2 3 3 3 4 7 4 6 8 6 5 4 3 1 4 2 1 1 1 3 5 6 8 10 11 9 6 7 11 12 10 11 10 9 7 5 5 4 5 12 0 5 5 7 7 5 5 8 10 13
10 8 3 2 2 2 2 5 2 2 3 3 5 3 2 2 2 6 1 1 2 2 3 6 6 4 4 9 13 11 8 7 7 7 6 7 7 5 4 11 6 4 11 5 4 6 5 5 5 4 5 6 8 10
9 2 1 1 2 3 4 2 3 3 3 3 2 3 2 3 6 1 1 2 5 6 3 2 3 5 2 2 11 15 13 11 11 13 9 3 7 14 3 8 6 8 5 2 6 6 5 3 3 4 4 4 7 10
2 1 1 2 3 2 2 2 2 2 2 2 2 2 1 3 2 1 1 2 7 9 6 3 2 6 14 10 11 17 18 18 14 8 2 14 13 3 7 7 11 14 14 10 6 3 3 3 4 3 4 4 6 10
1 2 3 1 1 2 2 2 1 2 2 2 3 2 3 2 2 1 2 3 4 8 9 4 5 12 9 13 19 20 23 11 3 7 15 18 9 6 9 14 15 15 15 15 13 6 1 4 4 2 1 2 4 6
2 2 3 3 3 4 4 4 5 4 3 2 1 3 2 2 2 3 7 11 11 8 9 3 2 5 11 18 22 18 11 24 24 23 20 11 3 6 5 7 7 9 9 10 10 9 5 2 3 1 2 4 5 8
3 3 3 1 3 4 3 3 3 3 3 2 1 2 2 2 0 5 6 3 10 10 11 10 8 9 12 13 16 13 8 6 7 3 4 6 5 1 4 4 5 6 9 11 10 7 6 5 4 3 4 6 8 10
3 4 3 5 4 5 5 5 4 3 1 3 5 4 3 3 5 8 11 19 22 19 11 6 3 7 10 14 7 5 3 1 4 6 8 7 6 12 8 3 7 7 9 10 9 7 4 4 5 5 6 7 8 9
3 7 3 3 4 4 5 7 9 12 13 12 16 20 23 26 28 26 24 22 22 19 12 6 5 11 14 11 5 5 2 2 3 6 4 4 4 2 5 6 6 7 8 7 5 4 4 5 5 5 6 8 8 8
3 5 4 5 5 9 11 12 14 14 17 16 12 13 14 12 13 7 10 14 17 20 17 13 9 8 9 1 3 4 4 3 4 6 6 8 3 4 5 4 6 8 8 5 5 6 7 8 7 7 7 8 10 10
7 9 5 3 4 5 9 6 4 3 4 3 3 4 4 3 3 6 9 3 11 15 15 10 6 6 3 4 1 2 4 4 5 5 5 4 4 4 3 4 5 6 6 5 5 5 5 6 6 5 5 7 7 8
5 7 8 5 4 3 4 2 2 3 3 3 2 3 3 3 3 9 9 8 9 9 7 3 3 4 4 3 2 2 3 4 4 5 5 5 4 2 2 1 2 2 2 3 3 4 3 4 5 5 6 7 7 8
Wind_Direction
335 338 338 340 348 344 342 343 342 342 348 351 350 350 352 356 359 360 353 356 357 295 280 246 220 182 142 116 208 92 185 89 104 116 182 144 155 104 127 87 93 84 222 116 227 252 235 144 254 263 345 307 298 295
336 338 339 345 343 340 341 343 342 348 346 348 348 349 349 352 352 356 354 344 335 259 259 256 229 207 185 115 87 56 64 127 138 115 164 140 140 155 157 140 167 188 323 324 239 282 347 276 271 270 294 294 308 305
335 338 336 335 337 336 338 340 343 344 343 344 345 347 347 345 343 346 350 349 352 321 301 283 176 204 215 169 164 46 59 142 113 125 127 107 126 178 148 136 142 129 161 246 264 179 300 300 294 283 280 290 299 299
336 337 336 336 334 335 336 340 342 340 338 341 342 341 339 338 334 337 346 4 11 327 304 93 109 137 156 168 173 147 127 121 116 85 84 98 109 217 137 92 214 56 178 287 262 289 317 287 296 316 300 299 297 300
334 335 334 334 332 334 335 338 340 334 336 339 340 337 335 337 331 330 343 15 16 20 309 297 158 121 203 176 179 171 174 162 150 122 120 100 115 158 88 163 172 182 148 266 297 310 290 291 304 308 305 304 304 304
331 333 334 332 332 335 337 337 339 339 337 338 337 335 332 329 327 340 45 28 353 355 336 320 341 88 155 157 162 169 175 163 130 128 111 125 148 155 178 189 131 194 231 265 286 302 297 293 299 304 303 302 302 300
332 333 334 334 336 337 337 337 340 341 339 338 336 341 352 11 81 83 73 340 338 336 337 305 353 49 146 153 180 209 221 206 180 136 116 123 121 136 134 191 147 264 301 306 307 314 310 306 306 311 310 309 309 307
330 331 331 334 341 341 341 342 341 338 339 341 341 347 43 81 73 27 355 336 332 339 329 304 283 100 96 159 160 183 167 160 148 123 115 122 125 88 135 156 290 323 322 321 322 312 296 303 311 316 319 319 317 318
328 329 330 336 338 340 342 342 341 338 339 338 342 2 28 27 333 326 327 328 326 274 304 289 307 109 23 81 100 79 104 127 101 137 95 158 106 149 133 168 332 337 324 311 324 331 336 332 330 330 329 330 323 324
330 332 335 335 338 340 340 342 345 345 344 343 349 2 352 318 319 337 9 356 342 285 256 259 268 349 15 39 72 138 37 74 184 81 120 74 110 156 167 355 340 336 330 329 333 338 340 339 337 337 336 336 334 335
328 332 335 339 341 342 342 342 344 350 355 360 340 308 321 338 28 55 11 13 345 284 250 273 245 330 29 30 85 37 98 25 234 119 241 158 167 181 167 348 347 340 336 330 327 332 332 334 337 340 340 339 337 332
326 330 334 336 339 344 345 343 344 352 351 337 319 316 341 356 7 63 358 274 237 354 322 339 348 299 328 70 164 51 94 210 232 174 235 174 137 160 315 344 353 351 348 341 337 346 355 360 357 357 358 357 359 357
324 331 331 331 333 333 336 339 342 342 340 354 1 344 359 1 62 57 339 15 350 338 339 326 289 260 171 81 81 159 160 242 253 220 137 108 142 198 323 333 345 350 347 346 350 353 8 17 23 19 16 16 14 11
324 332 328 327 329 330 333 337 339 341 339 354 356 351 1 31 19 255 305 304 293 281 234 179 257 332 8 73 43 223 83 264 251 231 137 149 201 294 316 328 335 337 340 339 337 354 8 17 16 13 12 14 20 24
323 320 323 324 332 333 331 333 333 334 316 331 339 3 10 323 293 325 337 326 329 300 344 287 184 23 32 133 20 144 199 245 245 128 138 185 280 311 322 323 331 332 333 327 317 342 349 1 9 15 12 14 11 13
316 318 326 330 333 330 330 331 327 330 311 325 296 279 325 295 0 14 11 352 22 15 347 350 45 31 46 336 212 214 235 240 146 164 194 304 316 319 319 322 326 327 327 320 304 304 321 319 353 6 10 13 16 18
322 328 331 335 339 336 330 332 333 345 324 303 281 281 299 294 292 315 327 343 4 21 91 305 349 11 295 264 238 217 298 356 321 299 298 315 315 319 314 316 320 322 323 314 293 296 323 278 307 349 2 11 15 21
328 328 328 335 342 346 347 1 349 330 285 267 286 283 313 301 297 314 330 342 344 360 224 54 164 252 280 239 247 258 261 279 278 288 296 312 313 315 313 311 316 319 315 300 295 299 309 312 270 307 346 5 12 23
327 328 329 335 342 341 331 341 356 315 276 289 287 297 297 289 287 294 298 309 306 287 259 231 204 250 249 223 251 297 307 288 284 292 295 321 319 314 313 311 315 307 290 303 276 276 306 318 332 329 339 10 15 22
320 324 326 330 336 322 314 313 321 298 285 298 298 299 295 284 287 282 277 287 273 225 216 204 238 280 306 315 299 306 303 295 286 284 305 330 328 327 320 316 322 332 280 252 278 300 53 73 27 360 13 25 25 44
319 322 326 328 328 298 291 310 298 290 298 286 291 313 294 303 300 303 299 234 187 234 322 318 323 336 332 322 308 294 292 283 252 291 311 306 320 326 314 328 3 336 256 317 327 97 90 58 48 36 45 42 42 50
320 325 328 328 335 313 277 264 273 292 275 281 307 312 285 308 325 15 335 194 209 35 351 343 354 350 1 343 351 344 307 292 288 296 284 298 307 313 296 311 33 162 238 336 317 124 82 92 75 54 74 65 52 43
323 326 327 333 290 266 281 302 282 259 272 288 310 285 267 286 320 339 82 43 55 39 3 35 21 0 61 58 39 25 18 3 345 327 305 303 310 318 45 34 42 234 296 325 189 150 121 112 69 73 97 74 52 38
321 287 231 235 275 280 300 268 264 280 276 270 278 284 292 311 329 10 73 63 26 13 26 18 24 14 11 352 359 3 360 359 344 327 307 345 100 121 69 352 342 335 342 111 145 136 147 136 57 74 99 77 40 32
320 280 275 269 243 273 264 272 252 267 268 311 290 274 328 325 295 322 86 65 37 25 355 318 79 43 4 359 337 338 340 333 317 327 131 146 123 71 26 55 64 68 71 78 93 112 140 108 68 63 93 60 25 21
243 229 194 255 229 231 279 273 316 322 295 271 256 305 315 289 255 176 77 15 20 18 14 42 99 75 30 11 349 342 336 340 315 170 134 148 121 61 74 80 76 67 54 43 35 25 68 104 65 91 107 29 20 29
280 236 246 259 269 286 278 266 262 261 256 249 278 332 291 253 220 115 99 68 58 34 18 355 242 269 326 348 354 352 70 113 114 123 139 145 64 27 76 84 64 50 37 31 30 26 29 38 42 69 37 8 13 18
232 263 237 218 257 244 267 267 248 239 246 245 228 233 262 278 356 151 165 111 3 359 353 0 320 281 297 325 355 28 96 140 165 73 343 322 352 307 173 130 71 42 32 26 22 31 36 62 67 42 31 27 19 15
234 226 226 252 241 246 235 228 243 235 246 332 306 280 276 258 288 283 288 301 307 311 316 323 347 345 342 342 342 132 204 39 30 49 52 88 83 103 100 100 47 45 36 32 38 43 57 49 42 35 21 12 15 12
248 200 222 240 230 237 240 225 259 266 258 266 266 264 270 271 276 282 280 271 267 275 278 281 271 326 343 353 108 84 71 187 162 158 62 81 62 106 94 78 57 49 44 39 34 52 45 23 19 42 45 31 27 23
224 197 230 235 249 244 274 282 282 286 282 279 279 263 267 286 301 306 281 256 240 235 232 250 271 303 335 86 109 73 61 65 132 129 133 168 348 89 88 83 69 53 35 44 74 74 64 60 72 77 58 42 33 27
204 209 212 239 259 277 295 281 280 267 278 283 286 289 307 297 298 347 348 247 202 208 215 230 262 293 280 200 206 123 110 90 116 113 110 101 105 116 108 82 62 44 56 73 64 62 59 59 58 47 26 13 10 11
216 227 227 269 273 263 254 277 287 296 274 272 279 308 322 322 337 2 27 75 129 158 166 204 197 185 181 174 128 120 122 123 127 121 108 108 117 117 107 25 341 339 335 327 316 306 308 321 328 336 355 4 2 0
Height
1576 1571 1565 1560 1555 1551 1546 1542 1537 1532 1528 1524 1521 1517 1514 1511 1509 1507 1505 1503 1503 1500 1496 1495 1496 1497 1497 1498 1497 1500 1499 1498 1499 1500 1502 1506 1505 1510 1511 1515 1514 1514 1515 1516 1520 1520 1520 1515 1515 1516 1513 1512 1512 1511
1573 1568 1563 1558 1554 1549 1545 1540 1535 1531 1527 1524 1520 1516 1513 1511 1508 1506 1504 1502 1500 1498 1496 1494 1495 1496 1497 1498 1498 1498 1499 1498 1499 1500 1505 1506 1507 1510 1513 1513 1516 1516 1515 1516 1518 1514 1514 1515 1514 1513 1511 1510 1508 1507
1570 1566 1561 1557 1552 1547 1543 1538 1534 1530 1526 1522 1519 1515 1513 1510 1508 1506 1504 1502 1498 1496 1493 1492 1493 1495 1495 1496 1498 1499 1498 1498 1498 1498 1501 1504 1506 1508 1508 1510 1511 1515 1517 1515 1517 1513 1512 1512 1511 1510 1509 1507 1505 1502
1568 1564 1559 1554 1549 1545 1540 1536 1532 1529 1525 1521 1517 1514 1511 1509 1506 1504 1503 1502 1500 1498 1496 1494 1493 1494 1495 1496 1497 1498 1498 1499 1499 1500 1501 1502 1502 1509 1508 1509 1511 1515 1517 1516 1514 1511 1510 1507 1508 1508 1506 1503 1500 1496
1566 1561 1556 1551 1546 1542 1538 1534 1530 1526 1523 1519 1515 1512 1509 1507 1505 1503 1503 1502 1501 1503 1499 1493 1493 1494 1494 1495 1497 1498 1499 1500 1500 1501 1501 1502 1506 1508 1511 1511 1510 1515 1514 1514 1511 1513 1512 1507 1506 1504 1500 1496 1492 1489
1563 1558 1553 1548 1543 1539 1535 1531 1527 1524 1520 1517 1513 1510 1507 1505 1503 1503 1503 1503 1502 1500 1499 1495 1494 1493 1493 1495 1497 1498 1500 1500 1500 1501 1502 1504 1504 1506 1505 1506 1513 1513 1514 1515 1513 1511 1509 1504 1501 1498 1495 1490 1485 1481
1561 1556 1551 1545 1540 1536 1533 1529 1525 1522 1518 1515 1511 1508 1506 1503 1503 1504 1506 1505 1502 1500 1500 1497 1494 1494 1494 1495 1497 1498 1499 1499 1500 1501 1502 1503 1506 1507 1507 1506 1511 1512 1512 1511 1509 1507 1504 1500 1496 1492 1488 1482 1478 1474
1558 1553 1548 1543 1538 1534 1531 1527 1524 1520 1516 1512 1509 1507 1506 1505 1505 1505 1504 1502 1501 1501 1500 1499 1495 1494 1494 1495 1496 1496 1497 1498 1500 1501 1503 1504 1507 1507 1507 1510 1510 1510 1508 1506 1506 1504 1501 1496 1492 1487 1483 1478 1470 1466
1555 1550 1545 1541 1537 1533 1529 1525 1522 1518 1515 1511 1508 1506 1506 1506 1505 1504 1502 1501 1501 1504 1501 1500 1496 1494 1495 1495 1495 1497 1496 1498 1501 1501 1503 1505 1508 1506 1508 1509 1509 1508 1507 1504 1501 1499 1496 1493 1487 1483 1477 1471 1466 1460
1552 1548 1543 1539 1535 1532 1528 1524 1520 1517 1513 1510 1508 1507 1506 1505 1504 1503 1501 1502 1501 1501 1500 1499 1498 1495 1496 1495 1497 1498 1497 1499 1498 1503 1504 1504 1505 1507 1508 1508 1507 1506 1504 1501 1499 1495 1492 1488 1484 1479 1475 1469 1463 1456
1549 1545 1542 1538 1534 1531 1527 1523 1519 1515 1512 1510 1508 1507 1506 1504 1502 1502 1502 1502 1502 1500 1499 1499 1498 1497 1497 1497 1497 1499 1499 1501 1498 1502 1502 1503 1503 1505 1506 1507 1506 1504 1501 1499 1497 1495 1492 1489 1484 1478 1473 1466 1459 1453
1546 1543 1540 1537 1533 1530 1527 1523 1519 1516 1513 1511 1509 1506 1505 1504 1503 1503 1504 1504 1503 1500 1499 1498 1498 1498 1498 1497 1498 1500 1499 1501 1500 1502 1500 1500 1502 1504 1505 1504 1503 1501 1499 1497 1495 1492 1490 1486 1482 1478 1473 1465 1457 1451
1544 1541 1538 1535 1532 1529 1526 1522 1519 1516 1512 1509 1509 1508 1507 1507 1508 1509 1507 1505 1506 1502 1502 1501 1500 1498 1497 1497 1498 1499 1498 1500 1501 1500 1496 1500 1502 1503 1503 1502 1501 1500 1498 1495 1493 1490 1488 1485 1481 1477 1472 1466 1459 1452
1541 1539 1536 1533 1530 1527 1524 1521 1518 1515 1512 1511 1511 1512 1508 1506 1505 1505 1504 1504 1503 1501 1500 1501 1501 1498 1497 1497 1499 1497 1501 1501 1498 1496 1498 1499 1501 1502 1501 1500 1499 1498 1495 1493 1490 1488 1486 1483 1481 1477 1473 1468 1462 1454
1538 1536 1533 1530 1528 1525 1522 1519 1517 1515 1514 1513 1513 1514 1508 1508 1506 1505 1503 1503 1502 1500 1499 1498 1498 1498 1498 1498 1500 1500 1499 1498 1496 1497 1498 1499 1500 1499 1499 1498 1497 1495 1492 1490 1488 1486 1484 1482 1480 1477 1473 1468 1463 1457
1535 1533 1531 1528 1526 1523 1519 1517 1515 1514 1513 1513 1513 1511 1510 1507 1505 1505 1504 1503 1501 1500 1499 1499 1498 1498 1498 1499 1498 1496 1498 1496 1495 1496 1497 1497 1498 1497 1497 1495 1494 1492 1489 1487 1485 1483 1482 1481 1479 1477 1474 1469 1463 1459
1532 1531 1529 1526 1524 1520 1517 1515 1514 1513 1513 1513 1512 1511 1510 1509 1508 1506 1504 1503 1502 1501 1503 1502 1499 1499 1503 1499 1498 1498 1496 1496 1496 1497 1496 1496 1496 1495 1494 1493 1491 1488 1485 1484 1482 1481 1480 1479 1477 1476 1474 1470 1465 1461
1531 1529 1527 1524 1521 1518 1515 1515 1514 1513 1513 1512 1512 1511 1510 1509 1506 1505 1504 1503 1503 1502 1501 1501 1501 1500 1498 1498 1496 1496 1496 1495 1496 1495 1495 1495 1493 1492 1490 1489 1487 1485 1483 1481 1479 1477 1476 1476 1475 1475 1473 1471 1467 1463
1530 1528 1526 1523 1520 1518 1516 1516 1515 1514 1512 1511 1510 1509 1508 1506 1504 1503 1503 1502 1502 1501 1502 1501 1500 1499 1496 1496 1496 1496 1494 1494 1494 1493 1493 1492 1490 1489 1487 1486 1483 1481 1480 1478 1476 1476 1475 1474 1474 1474 1473 1471 1469 1465
1527 1526 1524 1522 1520 1518 1516 1516 1516 1514 1512 1511 1508 1507 1505 1503 1501 1500 1500 1500 1500 1500 1500 1499 1498 1497 1497 1495 1494 1493 1492 1492 1491 1491 1490 1489 1487 1485 1484 1482 1480 1477 1477 1476 1476 1475 1474 1475 1474 1472 1472 1471 1470 1467
1526 1524 1522 1520 1518 1517 1517 1515 1515 1514 1512 1510 1507 1505 1503 1500 1499 1498 1498 1498 1499 1498 1497 1498 1497 1496 1495 1493 1491 1489 1488 1487 1487 1488 1487 1485 1485 1483 1481 1480 1476 1476 1475 1475 1475 1474 1474 1475 1474 1473 1473 1472 1471 1469
1523 1522 1519 1518 1518 1517 1516 1515 1515 1514 1512 1508 1506 1504 1502 1500 1498 1498 1498 1498 1497 1498 1498 1497 1497 1496 1494 1492 1489 1486 1486 1485 1485 1484 1484 1483 1482 1480 1479 1478 1475 1474 1475 1475 1475 1474 1475 1475 1475 1474 1473 1473 1472 1471
1522 1520 1519 1519 1518 1517 1517 1514 1513 1511 1510 1507 1505 1504 1501 1500 1498 1498 1498 1497 1498 1498 1498 1497 1496 1494 1494 1492 1490 1488 1486 1484 1483 1481 1480 1480 1479 1478 1477 1475 1474 1474 1473 1473 1473 1474 1475 1475 1475 1474 1474 1474 1473 1472
1520 1519 1519 1519 1518 1517 1515 1513 1512 1510 1508 1506 1505 1502 1500 1499 1498 1497 1496 1497 1498 1498 1497 1497 1496 1495 1494 1492 1490 1488 1485 1483 1481 1479 1479 1479 1477 1478 1478 1477 1476 1473 1471 1470 1472 1474 1475 1475 1475 1475 1475 1474 1474 1472
1521 1521 1520 1518 1517 1517 1514 1512 1511 1509 1507 1505 1504 1501 1500 1499 1498 1497 1497 1499 1498 1497 1496 1495 1495 1494 1492 1490 1489 1486 1483 1480 1478 1477 1478 1479 1479 1479 1480 1478 1477 1476 1475 1476 1476 1476 1476 1476 1476 1476 1476 1475 1474 1473
1519 1518 1518 1516 1515 1516 1513 1511 1509 1509 1507 1505 1503 1501 1500 1499 1498 1496 1498 1499 1498 1497 1496 1495 1495 1494 1493 1491 1488 1483 1478 1474 1472 1471 1476 1480 1480 1481 1482 1481 1480 1481 1480 1479 1478 1477 1477 1478 1477 1477 1477 1476 1476 1475
1519 1516 1516 1515 1515 1515 1513 1510 1509 1509 1506 1504 1501 1501 1500 1497 1494 1498 1499 1499 1498 1498 1497 1496 1495 1493 1493 1491 1487 1481 1477 1476 1476 1479 1482 1483 1483 1483 1484 1484 1483 1483 1483 1482 1481 1479 1479 1478 1478 1478 1478 1477 1476 1475
1517 1516 1515 1515 1514 1513 1512 1509 1507 1505 1503 1502 1501 1500 1498 1496 1496 1497 1497 1497 1498 1498 1497 1496 1494 1493 1492 1491 1488 1486 1485 1485 1485 1485 1485 1485 1484 1484 1484 1485 1485 1485 1484 1483 1481 1480 1480 1479 1479 1479 1479 1478 1477 1476
1514 1513 1514 1513 1512 1511 1508 1506 1503 1502 1501 1502 1501 1498 1497 1496 1496 1496 1496 1495 1495 1496 1495 1494 1493 1493 1492 1490 1488 1488 1487 1486 1486 1487 1486 1486 1485 1486 1487 1486 1487 1486 1486 1484 1483 1482 1482 1482 1482 1481 1480 1479 1478 1477
1511 1510 1511 1510 1509 1505 1502 1501 1499 1498 1497 1498 1498 1495 1494 1491 1489 1489 1488 1489 1490 1491 1492 1492 1493 1492 1490 1488 1487 1488 1487 1487 1488 1488 1488 1488 1489 1488 1489 1489 1489 1488 1487 1487 1486 1485 1485 1485 1484 1483 1482 1482 1480 1479
1508 1508 1509 1506 1502 1498 1497 1496 1495 1493 1492 1491 1490 1489 1487 1484 1482 1481 1480 1480 1482 1485 1488 1490 1491 1491 1490 1489 1489 1489 1488 1488 1488 1488 1489 1490 1490 1490 1490 1490 1490 1490 1490 1489 1489 1489 1488 1487 1486 1485 1485 1484 1482 1481
1505 1504 1504 1502 1497 1495 1494 1492 1491 1490 1489 1488 1487 1486 1485 1484 1481 1480 1478 1476 1478 1481 1485 1488 1489 1489 1488 1489 1489 1489 1489 1490 1490 1490 1490 1490 1491 1491 1491 1492 1492 1492 1491 1491 1490 1490 1489 1488 1488 1487 1486 1485 1483 1482
1501 1501 1500 1499 1496 1493 1491 1492 1491 1490 1489 1487 1486 1485 1484 1484 1482 1481 1479 1478 1479 1482 1485 1486 1487 1487 1488 1488 1488 1488 1489 1490 1491 1491 1491 1492 1492 1492 1492 1492 1492 1492 1492 1491 1491 1490 1489 1488 1488 1487 1486 1484 1483 1481